This demonstration page uses our WeatherBlox Daily Observations layout. Learn more.

Left ArrowRight Arrow

38.89511, -77.03637

Hourly Observations for April 6, 2019

Temp ( °F °C ) Dew Point ( °F °C ) Humidity (%) Winds ( mph kmh ) Pressure ( in mb ) Visibility ( mi km ) Precip ( " mm )
12:25 am 00:25 Cloudy 47 8.3 43 6.1 86 86 NNE 7 11 30.22 1023 8 13 N/A
12:52 am 00:52 Cloudy with Haze 47 8.3 42 5.6 83 83 N 9 15 30.21 1023 6 10 N/A
1:52 am 01:52 Cloudy with Haze 47 8.3 42 5.6 83 83 NNE 7 11 30.21 1023 6 10 N/A
2:39 am 02:39 Cloudy with Mist and Fog 47 8.3 43 6.1 86 86 N 6 9 30.20 1023 5 8 N/A
2:52 am 02:52 Cloudy with Light Rain 47 8.3 43 6.1 86 86 N 6 9 30.19 1023 5 8 N/A
3:10 am 03:10 Cloudy with Mist and Fog 47 8.3 43 6.1 86 86 NNW 7 11 30.19 1022 5 8 N/A
3:52 am 03:52 Cloudy with Mist and Fog 47 8.3 43 6.1 86 86 NNW 7 11 30.18 1022 6 10 N/A
4:52 am 04:52 Cloudy with Mist and Fog 47 8.3 43 6.1 86 86 NNW 7 11 30.18 1022 5 8 N/A
5:52 am 05:52 Cloudy 47 8.3 42 5.6 83 83 N 7 11 30.19 1023 9 14 N/A
5:58 am 05:58 Cloudy 47 8.3 42 5.6 83 83 N 7 11 30.20 1023 9 14 N/A
6:52 am 06:52 Cloudy 47 8.3 42 5.6 83 83 N 9 15 30.20 1023 7 11 N/A
7:52 am 07:52 Cloudy 48 8.9 43 6.1 83 83 N 3 6 30.23 1024 9 14 N/A
8:32 am 08:32 Cloudy 49 9.4 42 5.6 77 77 N N/A 30.24 1024 9 14 N/A
8:52 am 08:52 Cloudy 50 10 43 6.1 77 77 VRB 3 6 30.24 1024 10 16 N/A
9:52 am 09:52 Partly Cloudy 51 10.6 43 6.1 74 74 ENE 5 7 30.24 1024 10 16 N/A
10:52 am 10:52 Mostly Sunny 55 12.8 44 6.7 67 67 E 5 7 30.24 1024 10 16 N/A
11:52 am 11:52 Partly Cloudy 60 15.6 46 7.8 60 60 NE 6 9 30.24 1024 10 16 N/A
12:52 pm 12:52 Mostly Cloudy 62 16.7 46 7.8 56 56 N N/A 30.22 1024 10 16 N/A
1:52 pm 13:52 Mostly Cloudy 65 18.3 46 7.8 51 51 NE 3 6 30.21 1023 10 16 N/A
2:52 pm 14:52 Mostly Cloudy 67 19.4 46 7.8 47 47 N N/A 30.20 1023 10 16 N/A
3:52 pm 15:52 Mostly Cloudy 69 20.6 45 7.2 42 42 SE 5 7 30.19 1022 10 16 N/A
4:52 pm 16:52 Mostly Cloudy 68 20 46 7.8 45 45 ESE 3 6 30.18 1022 10 16 N/A
5:52 pm 17:52 Partly Cloudy 70 21.1 45 7.2 41 41 N N/A 30.17 1022 10 16 N/A
6:52 pm 18:52 Partly Cloudy 67 19.4 45 7.2 45 45 ENE 3 6 30.17 1022 10 16 N/A
7:52 pm 19:52 Partly Cloudy 64 17.8 46 7.8 52 52 SSE 8 13 30.19 1022 10 16 N/A
8:52 pm 20:52 Mostly Clear 62 16.7 45 7.2 54 54 SSE 6 9 30.22 1023 10 16 N/A
9:52 pm 21:52 Partly Cloudy 60 15.6 45 7.2 58 58 S 7 11 30.23 1024 10 16 N/A
10:52 pm 22:52 Mostly Cloudy 59 15 46 7.8 62 62 SSW 6 9 30.24 1024 10 16 N/A
11:52 pm 23:52 Mostly Cloudy 59 15 48 8.9 67 67 SSE 3 6 30.24 1024 10 16 N/A

Powered by AerisWeather